Location: San Martino di Castrozza
(46.2667°N, 11.8000°E)
Time: 16:21:22
(UTC+00:00)

Cosmos 1862 Rocket - Pass Details

Date: 23 April 2021
Orbit: 603 x 635 km, 82.5° (Epoch: 13 May)

Event Time Altitude Azimuth Distance (km) Brightness Sun altitude
Exits shadow 00:52:43 48° 337° (NNW) 816 4.3 -26.9°
Drops below altitude 10° 00:56:04 10° 3° (N) 1,983 7.0 -26.6°
Sets 00:58:19 0° 7° (N) 2,888 8.1 -26.4°
